Flag for Canada

Past Weather in Rothesay, New Brunswick, Canada — Yesterday and Last 2 Weeks

Now
55 °F

Passing clouds.


Feels Like: 55 °F
Forecast: 64 / 39 °F
Wind: 3 mph from South

Location: Saint John
Current Time: Sep 24, 2020 at 10:47:12 pm
Latest Report: Sep 24, 2020 at 9:00 pm
Visibility: 15 mi
Pressure29.87 "Hg
Humidity: 88%
Dew Point: 52 °F
Location of RothesayLocation

Past Weather in Rothesay — Graph

°F

Rothesay Temperature Yesterday

Maximum temperature yesterday: 66 °F (at 3:00 pm)
Minimum temperature yesterday: 45 °F (at 6:00 am)
Average temperature yesterday: 54 °F

High & Low Weather Summary for the Past Weeks

 TemperatureHumidityPressure
High72 °F (Sep 14, 1:00 pm)100% (Sep 9, 9:00 pm)30.63 "Hg (Sep 9, 9:00 pm)
Low28 °F (Sep 21, 7:00 am)31% (Sep 19, 4:00 pm)29.30 "Hg (Sep 23, 7:00 am)
Average53 °F83%30.10 "Hg
* Reported Sep 9 9:00 pm — Sep 24 9:00 pm, Rothesay. Weather by CustomWeather, © 2020

Note: Actual official high and low records may vary slightly from our data, if they occured in-between our weather recording intervals... More about our weather records

Rothesay Weather History for the Previous 24 Hours

Scroll right to see more
 ConditionsComfort  
Time TempWeatherWind HumidityBarometerVisibility
9:00 pm
Thu, Sep 24
55 °FPassing clouds.3 mph88%29.87 "Hg15 mi
8:00 pm54 °FPassing clouds.2 mph94%29.85 "Hg15 mi
7:00 pm59 °FScattered clouds.7 mph82%29.84 "Hg15 mi
6:00 pm64 °FPartly sunny.9 mph68%29.81 "Hg15 mi
5:00 pm66 °FBroken clouds.13 mph64%29.81 "Hg15 mi
4:00 pm70 °FBroken clouds.10 mph50%29.80 "Hg15 mi
3:00 pm68 °FScattered clouds.8 mph49%29.80 "Hg15 mi
2:00 pm68 °FPassing clouds.12 mph49%29.80 "Hg15 mi
1:00 pm66 °FScattered clouds.14 mph52%29.81 "Hg15 mi
12:00 pm64 °FPartly sunny.14 mph60%29.80 "Hg15 mi
11:00 am64 °FScattered clouds.12 mph60%29.79 "Hg15 mi
10:00 am61 °FScattered clouds.13 mph72%29.78 "Hg15 mi
9:00 am59 °FSunny.9 mph82%29.76 "Hg15 mi
8:00 am54 °FPassing clouds.3 mph94%29.73 "Hg15 mi
7:00 am54 °FPassing clouds.6 mph94%29.71 "Hg15 mi
6:00 am54 °FPassing clouds.6 mph94%29.70 "Hg15 mi
5:00 am50 °FPassing clouds.3 mph94%29.68 "Hg15 mi
4:00 am54 °FPassing clouds.3 mph94%29.66 "Hg15 mi
3:00 am57 °FPassing clouds.7 mph82%29.65 "Hg15 mi
2:00 am59 °FPassing clouds.10 mph77%29.64 "Hg15 mi
1:00 am59 °FPassing clouds.8 mph77%29.62 "Hg15 mi
12:00 am59 °FPassing clouds.9 mph72%29.62 "Hg15 mi
11:00 pm
Wed, Sep 23
59 °FPassing clouds.7 mph72%29.60 "Hg15 mi
10:00 pm61 °FPassing clouds.6 mph68%29.58 "Hg15 mi
Weather by CustomWeather, © 2020

See weather overview